Location: La Brionne
(46.1728°N, 1.7849°E)
Time: 19:34:53
(UTC+00:00)

USA 267 - Pass Details

Date: 25 October 2021
Orbit: 1101 x 1107 km, 123.0° (Epoch: 27 November)

Event Time Altitude Azimuth Distance (km) Brightness Sun altitude
Exits shadow 18:57:30 - 160° (SSE) 3,216 5.5 -22.8°
Reaches altitude 10° 18:58:16 10° 163° (SSE) 2,950 5.3 -22.9°
Maximum altitude 19:04:15 38° 230° (SW) 1,613 4.4 -24.0°
Drops below altitude 10° 19:10:16 10° 297° (WNW) 2,962 6.5 -25.0°
Sets 19:12:59 0° 305° (NW) 3,923 7.2 -25.5°
